Flag for Argentina Weather past 2 weeks in Río Gallegos, Santa Cruz, Argentina

Now
41 °F

Clear.


Feels Like: 32 °F
Forecast: 42 / 56 °F
Wind: 17 mph from West

Location: Rio Gallegos Aerodrome

Current Time: Dec 26, 2014 at 4:20:55 AM

Latest Report: Dec 26, 2014 at 4:00 AM


Visibility: 10 mi

Pressure: 29.42 "Hg

Humidity: 61%

Dew point: 28 °F

Location of Río GallegosLocation

Historic Weather in Río Gallegos — Graph

°F

Río Gallegos temperature yesterday

Maximum temperature yesterday: 72 °F (at 6:00 PM)
Minimum temperature yesterday: 45 °F (at 3:00 AM)
Average temperature yesterday: 57 °F

Past Weeks' High & Low Weather Summary

 TemperatureHumidityPressure
High75 °F (Dec 14, 6:00 PM)100% (Dec 18, 2:00 AM)30.01 "Hg (Dec 18, 2:00 AM)
Low34 °F (Dec 19, 6:00 AM)17% (Dec 25, 3:00 PM)29.00 "Hg (Dec 18, 5:00 AM)
Average54 °F47%29.53 "Hg
* Reported Dec 11 3:00 AM — Dec 26 3:00 AM, Río Gallegos, Weather by CustomWeather, © 2014

Note: Actual official high and low records may vary slightly from our data, if they occured in-between our weather recording intervals... More about our weather records

Advertising

Río Gallegos weather history for previous 24 hours

 ConditionsComfort  
Time TempWeatherWind HumidityBarometerVisibility
3:00 AM
Dec 26
41 °FClear.10 mph61%29.39 "Hg10 mi
2:00 AM45 °FClear.18 mph49%29.39 "Hg10 mi
1:00 AM46 °FClear.21 mph46%29.36 "Hg10 mi
12:00 AM46 °FClear.14 mph46%29.33 "Hg10 mi
11:00 PM
Dec 25
50 °FPartly cloudy.20 mph37%29.30 "HgN/A
10:00 PM54 °FPassing clouds.17 mph47%29.27 "HgN/A
9:00 PM59 °FPassing clouds.21 mph39%29.21 "HgN/A
8:00 PM63 °FScattered clouds.23 mph32%29.12 "HgN/A
7:00 PM70 °FScattered clouds.29 mph21%29.09 "HgN/A
6:00 PM72 °FBroken clouds.17 mph17%29.09 "HgN/A
5:00 PM70 °FBroken clouds.18 mph20%29.09 "HgN/A
4:00 PM70 °FScattered clouds.23 mph33%29.12 "HgN/A
3:00 PM70 °FScattered clouds.23 mph17%29.15 "HgN/A
2:00 PM66 °FScattered clouds.23 mph19%29.18 "HgN/A
1:00 PM63 °FBroken clouds.16 mph27%29.24 "HgN/A
12:00 PM61 °FSunny.12 mph25%29.27 "Hg10 mi
11:00 AM57 °FPartly sunny.8 mph31%29.30 "HgN/A
10:00 AM55 °FBroken clouds.13 mph38%29.36 "HgN/A
9:00 AM50 °FSunny.10 mph50%29.39 "Hg10 mi
8:00 AM50 °FSunny.10 mph43%29.39 "Hg10 mi
7:00 AM48 °FSunny.10 mph46%29.39 "Hg10 mi
6:00 AM50 °FSunny.10 mph47%29.39 "Hg10 mi
5:00 AM46 °FSunny.12 mph53%29.39 "Hg10 mi
4:00 AM46 °FClear.10 mph57%29.39 "Hg10 mi
Weather by CustomWeather, © 2014

See weather overviewHow to use our weather pages